Wetterdaten: Freitag, 06.03.2020
Datum Zeit Temp. Auen Feucht Auen Luftdruck Regen Richtung Richtung Windben
06.03.2020 00:00 5,3 C 90 % 995,6 hPa 0,2 mm O-NO 77 6,4 km/h (2 Bft)
06.03.2020 00:05 5,3 C 90 % 995,6 hPa 0,0 mm O-NO 68 6,4 km/h (2 Bft)
06.03.2020 00:10 5,3 C 90 % 995,7 hPa 0,0 mm O-NO 68 4,8 km/h (1 Bft)
06.03.2020 00:15 5,2 C 91 % 995,8 hPa 0,0 mm S 171 6,4 km/h (2 Bft)
06.03.2020 00:20 5,2 C 90 % 995,8 hPa 0,0 mm S 170 4,8 km/h (1 Bft)
06.03.2020 00:25 5,2 C 91 % 995,8 hPa 0,0 mm S 170 3,2 km/h (1 Bft)
06.03.2020 00:30 5,2 C 91 % 996,0 hPa 0,0 mm S 170 0,0 km/h (0 Bft)
06.03.2020 00:35 5,2 C 91 % 996,0 hPa 0,0 mm S 171 0,0 km/h (0 Bft)
06.03.2020 00:40 5,1 C 91 % 995,9 hPa 0,0 mm S 173 3,2 km/h (1 Bft)
06.03.2020 00:45 5,2 C 91 % 995,8 hPa 0,0 mm W-SW 245 4,8 km/h (1 Bft)
06.03.2020 00:50 5,2 C 91 % 995,7 hPa 0,0 mm W 276 6,4 km/h (2 Bft)
06.03.2020 00:55 5,2 C 91 % 995,7 hPa 0,0 mm W 278 6,4 km/h (2 Bft)
06.03.2020 01:00 5,2 C 91 % 995,7 hPa 0,0 mm W 278 6,4 km/h (2 Bft)
06.03.2020 01:05 5,2 C 91 % 995,7 hPa 0,0 mm W 271 9,7 km/h (2 Bft)
06.03.2020 01:10 5,2 C 91 % 995,6 hPa 0,0 mm W 281 11,3 km/h (2 Bft)
06.03.2020 01:15 5,2 C 91 % 995,6 hPa 0,0 mm W 273 6,4 km/h (2 Bft)
06.03.2020 01:20 5,2 C 91 % 995,5 hPa 0,0 mm W 273 6,4 km/h (2 Bft)
06.03.2020 01:25 5,2 C 92 % 995,6 hPa 0,0 mm W 273 8,0 km/h (2 Bft)
06.03.2020 01:30 5,2 C 92 % 995,5 hPa 0,0 mm W 273 4,8 km/h (1 Bft)
06.03.2020 01:35 5,2 C 92 % 995,5 hPa 0,0 mm W 273 3,2 km/h (1 Bft)
06.03.2020 01:40 5,2 C 92 % 995,5 hPa 0,0 mm W 273 1,6 km/h (1 Bft)
06.03.2020 01:45 5,2 C 92 % 995,5 hPa 0,0 mm W 273 1,6 km/h (1 Bft)
06.03.2020 01:50 5,2 C 92 % 995,4 hPa 0,0 mm W 273 0,0 km/h (0 Bft)
06.03.2020 01:55 5,2 C 92 % 995,4 hPa 0,0 mm W 273 0,0 km/h (0 Bft)
06.03.2020 02:00 5,2 C 92 % 995,4 hPa 0,0 mm W 273 1,6 km/h (1 Bft)
06.03.2020 02:05 5,2 C 92 % 995,3 hPa 0,0 mm W 273 0,0 km/h (0 Bft)
06.03.2020 02:10 5,1 C 92 % 995,2 hPa 0,0 mm W 273 0,0 km/h (0 Bft)
06.03.2020 02:15 5,1 C 92 % 995,2 hPa 0,0 mm W 273 0,0 km/h (0 Bft)
06.03.2020 02:20 5,1 C 92 % 995,2 hPa 0,0 mm W 273 0,0 km/h (0 Bft)
06.03.2020 02:25 5,1 C 91 % 995,1 hPa 0,0 mm W 273 0,0 km/h (0 Bft)
06.03.2020 02:30 5,0 C 91 % 995,0 hPa 0,0 mm W 273 0,0 km/h (0 Bft)
06.03.2020 02:35 5,0 C 91 % 995,0 hPa 0,0 mm W 273 0,0 km/h (0 Bft)
06.03.2020 02:40 5,0 C 92 % 994,9 hPa 0,0 mm W 273 0,0 km/h (0 Bft)
06.03.2020 02:45 4,9 C 92 % 994,9 hPa 0,0 mm W 273 0,0 km/h (0 Bft)
06.03.2020 02:50 4,9 C 92 % 994,9 hPa 0,2 mm W 273 3,2 km/h (1 Bft)
06.03.2020 02:55 4,9 C 92 % 994,9 hPa 0,0 mm W 273 1,6 km/h (1 Bft)
06.03.2020 03:00 4,9 C 92 % 994,9 hPa 0,0 mm W 273 3,2 km/h (1 Bft)
06.03.2020 03:05 4,9 C 92 % 994,9 hPa 0,0 mm W 273 0,0 km/h (0 Bft)
06.03.2020 03:10 4,9 C 92 % 994,9 hPa 0,0 mm W 273 3,2 km/h (1 Bft)
06.03.2020 03:15 4,9 C 92 % 994,9 hPa 0,0 mm W 273 0,0 km/h (0 Bft)
06.03.2020 03:20 4,9 C 92 % 994,7 hPa 0,2 mm W 273 0,0 km/h (0 Bft)
06.03.2020 03:25 4,9 C 92 % 994,7 hPa 0,0 mm W 273 4,8 km/h (1 Bft)
06.03.2020 03:30 4,9 C 92 % 994,6 hPa 0,2 mm W 275 6,4 km/h (2 Bft)
06.03.2020 03:35 4,9 C 92 % 994,8 hPa 0,0 mm W 275 1,6 km/h (1 Bft)
06.03.2020 03:40 4,9 C 92 % 994,6 hPa 0,0 mm W 275 6,4 km/h (2 Bft)
06.03.2020 03:45 4,9 C 92 % 994,5 hPa 0,0 mm W 276 4,8 km/h (1 Bft)
06.03.2020 03:50 4,9 C 92 % 994,5 hPa 0,0 mm W 276 3,2 km/h (1 Bft)
06.03.2020 03:55 4,9 C 92 % 994,5 hPa 0,0 mm W 276 6,4 km/h (2 Bft)
06.03.2020 04:00 4,9 C 92 % 994,5 hPa 0,0 mm S-SO 163 9,7 km/h (2 Bft)
06.03.2020 04:05 4,9 C 92 % 994,5 hPa 0,0 mm S-SO 163 8,0 km/h (2 Bft)
06.03.2020 04:10 4,9 C 92 % 994,4 hPa 0,0 mm SO 140 8,0 km/h (2 Bft)
06.03.2020 04:15 4,8 C 92 % 994,4 hPa 0,0 mm N-NO 25 11,3 km/h (2 Bft)
06.03.2020 04:20 4,9 C 92 % 994,5 hPa 0,0 mm S 169 6,4 km/h (2 Bft)
06.03.2020 04:25 4,9 C 92 % 994,5 hPa 0,0 mm S 169 3,2 km/h (1 Bft)
06.03.2020 04:30 4,9 C 92 % 994,6 hPa 0,0 mm W 266 4,8 km/h (1 Bft)
06.03.2020 04:35 4,9 C 92 % 994,6 hPa 0,0 mm W 275 4,8 km/h (1 Bft)
06.03.2020 04:40 4,9 C 92 % 994,6 hPa 0,0 mm W-SW 258 12,9 km/h (3 Bft)
06.03.2020 04:45 4,9 C 92 % 994,6 hPa 0,0 mm W 277 9,7 km/h (2 Bft)
06.03.2020 04:50 4,9 C 92 % 994,6 hPa 0,0 mm W 277 8,0 km/h (2 Bft)
06.03.2020 04:55 4,9 C 92 % 994,7 hPa 0,0 mm W 277 8,0 km/h (2 Bft)
06.03.2020 05:00 4,9 C 92 % 994,8 hPa 0,0 mm W 276 8,0 km/h (2 Bft)
06.03.2020 05:05 4,9 C 92 % 994,9 hPa 0,0 mm W 281 11,3 km/h (2 Bft)
06.03.2020 05:10 4,9 C 92 % 995,1 hPa 0,2 mm W 268 11,3 km/h (2 Bft)
06.03.2020 05:15 4,9 C 92 % 995,1 hPa 0,0 mm W 270 8,0 km/h (2 Bft)
06.03.2020 05:20 4,9 C 92 % 995,2 hPa 0,0 mm W 276 9,7 km/h (2 Bft)
06.03.2020 05:25 4,9 C 92 % 995,3 hPa 0,2 mm W 276 14,5 km/h (3 Bft)
06.03.2020 05:30 4,9 C 92 % 995,3 hPa 0,2 mm W 269 11,3 km/h (2 Bft)
06.03.2020 05:35 4,9 C 92 % 995,5 hPa 0,2 mm W 272 8,0 km/h (2 Bft)
06.03.2020 05:40 4,9 C 93 % 995,6 hPa 0,2 mm W 272 8,0 km/h (2 Bft)
06.03.2020 05:45 4,9 C 93 % 995,7 hPa 0,6 mm W 272 6,4 km/h (2 Bft)
06.03.2020 05:50 4,9 C 93 % 995,8 hPa 0,2 mm W 274 8,0 km/h (2 Bft)
06.03.2020 05:55 4,9 C 93 % 995,8 hPa 0,2 mm W 274 6,4 km/h (2 Bft)
06.03.2020 06:00 4,9 C 93 % 995,9 hPa 0,2 mm W 274 3,2 km/h (1 Bft)
06.03.2020 06:05 4,8 C 93 % 996,0 hPa 0,2 mm W 274 4,8 km/h (1 Bft)
06.03.2020 06:10 4,8 C 93 % 996,1 hPa 0,4 mm W 274 6,4 km/h (2 Bft)
06.03.2020 06:15 4,8 C 93 % 996,1 hPa 0,0 mm W 274 6,4 km/h (2 Bft)
06.03.2020 06:20 4,8 C 93 % 996,1 hPa 0,2 mm W 274 3,2 km/h (1 Bft)
06.03.2020 06:25 4,8 C 93 % 995,9 hPa 0,0 mm W 274 1,6 km/h (1 Bft)
06.03.2020 06:30 4,7 C 93 % 995,8 hPa 0,2 mm NW 317 4,8 km/h (1 Bft)
06.03.2020 06:35 4,7 C 93 % 995,7 hPa 0,0 mm O-NO 76 4,8 km/h (1 Bft)
06.03.2020 06:40 4,7 C 93 % 995,7 hPa 0,0 mm N-NO 15 6,4 km/h (2 Bft)
06.03.2020 06:45 4,7 C 93 % 995,9 hPa 0,0 mm W 274 6,4 km/h (2 Bft)
06.03.2020 06:50 4,7 C 93 % 996,0 hPa 0,0 mm W 274 4,8 km/h (1 Bft)
06.03.2020 06:55 4,7 C 93 % 996,1 hPa 0,0 mm W 274 3,2 km/h (1 Bft)
06.03.2020 07:00 4,7 C 93 % 996,2 hPa 0,0 mm W 274 3,2 km/h (1 Bft)
06.03.2020 07:05 4,7 C 93 % 996,3 hPa 0,0 mm W 274 0,0 km/h (0 Bft)
06.03.2020 07:10 4,7 C 93 % 996,3 hPa 0,2 mm W 274 3,2 km/h (1 Bft)
06.03.2020 07:15 4,7 C 93 % 996,4 hPa 0,0 mm W 274 4,8 km/h (1 Bft)
06.03.2020 07:20 4,7 C 93 % 996,5 hPa 0,0 mm W 274 0,0 km/h (0 Bft)
06.03.2020 07:25 4,7 C 93 % 996,6 hPa 0,2 mm W 274 0,0 km/h (0 Bft)
06.03.2020 07:30 4,7 C 93 % 996,7 hPa 0,0 mm W 274 0,0 km/h (0 Bft)
06.03.2020 07:35 4,7 C 93 % 996,7 hPa 0,2 mm W 274 0,0 km/h (0 Bft)
06.03.2020 07:40 4,7 C 93 % 996,9 hPa 0,0 mm W 274 0,0 km/h (0 Bft)
06.03.2020 07:45 4,8 C 93 % 996,7 hPa 0,2 mm W 274 6,4 km/h (2 Bft)
06.03.2020 07:50 4,8 C 93 % 996,3 hPa 0,0 mm O-SO 103 11,3 km/h (2 Bft)
06.03.2020 07:55 4,8 C 93 % 996,4 hPa 0,0 mm N 5 8,0 km/h (2 Bft)
06.03.2020 08:00 4,8 C 93 % 996,3 hPa 0,0 mm N 5 8,0 km/h (2 Bft)
06.03.2020 08:05 4,8 C 93 % 996,4 hPa 0,0 mm N 5 3,2 km/h (1 Bft)
06.03.2020 08:10 4,8 C 93 % 996,4 hPa 0,0 mm N 5 0,0 km/h (0 Bft)
06.03.2020 08:15 4,8 C 93 % 996,3 hPa 0,0 mm N 5 1,6 km/h (1 Bft)
06.03.2020 08:20 4,8 C 93 % 996,3 hPa 0,0 mm S-SO 148 3,2 km/h (1 Bft)
06.03.2020 08:25 4,9 C 93 % 996,4 hPa 0,0 mm S-SO 148 3,2 km/h (1 Bft)
06.03.2020 08:30 4,9 C 93 % 996,3 hPa 0,0 mm S-SO 148 4,8 km/h (1 Bft)
06.03.2020 08:35 4,9 C 93 % 996,4 hPa 0,0 mm S-SO 148 4,8 km/h (1 Bft)
06.03.2020 08:40 4,9 C 93 % 996,4 hPa 0,0 mm S-SO 148 3,2 km/h (1 Bft)
06.03.2020 08:45 5,1 C 93 % 996,5 hPa 0,0 mm S-SO 148 3,2 km/h (1 Bft)
06.03.2020 08:50 5,1 C 93 % 996,5 hPa 0,0 mm S-SO 148 4,8 km/h (1 Bft)
06.03.2020 08:55 5,2 C 93 % 996,4 hPa 0,0 mm S-SO 148 0,0 km/h (0 Bft)
06.03.2020 09:00 5,1 C 93 % 996,4 hPa 0,0 mm S-SO 148 0,0 km/h (0 Bft)
06.03.2020 09:05 5,3 C 94 % 996,5 hPa 0,0 mm S-SO 147 0,0 km/h (0 Bft)
06.03.2020 09:10 5,2 C 93 % 996,4 hPa 0,0 mm S-SO 148 0,0 km/h (0 Bft)
06.03.2020 09:15 5,4 C 94 % 996,4 hPa 0,0 mm S-SO 148 0,0 km/h (0 Bft)
06.03.2020 09:20 5,3 C 93 % 996,5 hPa 0,0 mm S-SO 148 0,0 km/h (0 Bft)
06.03.2020 09:25 5,5 C 93 % 996,5 hPa 0,0 mm SO 146 4,8 km/h (1 Bft)
06.03.2020 09:30 5,4 C 93 % 996,6 hPa 0,0 mm SO 146 3,2 km/h (1 Bft)
06.03.2020 09:35 5,6 C 93 % 996,6 hPa 0,0 mm SO 146 4,8 km/h (1 Bft)
06.03.2020 09:40 5,8 C 93 % 996,7 hPa 0,0 mm SO 146 6,4 km/h (2 Bft)
06.03.2020 09:45 5,8 C 92 % 996,7 hPa 0,0 mm SO 146 4,8 km/h (1 Bft)
06.03.2020 09:50 6,1 C 92 % 996,8 hPa 0,0 mm NO 36 6,4 km/h (2 Bft)
06.03.2020 09:55 6,2 C 92 % 996,8 hPa 0,0 mm O-SO 107 6,4 km/h (2 Bft)
06.03.2020 10:00 6,2 C 91 % 996,9 hPa 0,0 mm O-NO 61 8,0 km/h (2 Bft)
06.03.2020 10:05 6,3 C 91 % 997,0 hPa 0,0 mm O 83 8,0 km/h (2 Bft)
06.03.2020 10:10 6,2 C 90 % 997,0 hPa 0,0 mm O 96 8,0 km/h (2 Bft)
06.03.2020 10:15 6,4 C 90 % 997,1 hPa 0,0 mm O 96 8,0 km/h (2 Bft)
06.03.2020 10:20 6,5 C 90 % 997,1 hPa 0,0 mm O-SO 113 6,4 km/h (2 Bft)
06.03.2020 10:25 6,7 C 91 % 997,1 hPa 0,0 mm O 80 9,7 km/h (2 Bft)
06.03.2020 10:30 6,6 C 90 % 997,3 hPa 0,0 mm NO 56 9,7 km/h (2 Bft)
06.03.2020 10:35 6,7 C 90 % 997,2 hPa 0,0 mm O-NO 68 6,4 km/h (2 Bft)
06.03.2020 10:40 6,8 C 90 % 997,4 hPa 0,0 mm O-SO 113 9,7 km/h (2 Bft)
06.03.2020 10:45 6,6 C 89 % 997,4 hPa 0,0 mm O 90 8,0 km/h (2 Bft)
06.03.2020 10:50 6,6 C 89 % 997,5 hPa 0,0 mm O-NO 75 6,4 km/h (2 Bft)
06.03.2020 10:55 6,5 C 89 % 997,6 hPa 0,0 mm O-NO 74 6,4 km/h (2 Bft)
06.03.2020 11:00 6,6 C 89 % 997,6 hPa 0,0 mm O-NO 74 4,8 km/h (1 Bft)
06.03.2020 11:05 6,6 C 89 % 997,7 hPa 0,0 mm SO 136 8,0 km/h (2 Bft)
06.03.2020 11:10 6,6 C 89 % 997,8 hPa 0,0 mm SO 136 4,8 km/h (1 Bft)
06.03.2020 11:15 6,8 C 89 % 997,8 hPa 0,0 mm SO 134 4,8 km/h (1 Bft)
06.03.2020 11:20 6,9 C 89 % 997,7 hPa 0,0 mm NO 51 8,0 km/h (2 Bft)
06.03.2020 11:25 7,1 C 89 % 997,7 hPa 0,0 mm O 90 6,4 km/h (2 Bft)
06.03.2020 11:30 7,7 C 89 % 997,8 hPa 0,0 mm W 263 8,0 km/h (2 Bft)
06.03.2020 11:35 8,4 C 86 % 997,8 hPa 0,0 mm W-NW 298 8,0 km/h (2 Bft)
06.03.2020 11:40 8,7 C 83 % 997,8 hPa 0,0 mm W 279 12,9 km/h (3 Bft)
06.03.2020 11:45 9,0 C 80 % 997,8 hPa 0,0 mm W 281 12,9 km/h (3 Bft)
06.03.2020 11:50 9,2 C 78 % 997,9 hPa 0,0 mm W-SW 258 16,1 km/h (3 Bft)
06.03.2020 11:55 9,1 C 76 % 997,9 hPa 0,0 mm W 262 17,7 km/h (3 Bft)
06.03.2020 12:00 8,9 C 76 % 997,9 hPa 0,0 mm W 265 11,3 km/h (2 Bft)
06.03.2020 12:05 9,0 C 77 % 997,9 hPa 0,0 mm W 263 11,3 km/h (2 Bft)
06.03.2020 12:10 9,2 C 78 % 997,9 hPa 0,0 mm W 275 9,7 km/h (2 Bft)
06.03.2020 12:15 9,1 C 77 % 998,0 hPa 0,0 mm W 278 11,3 km/h (2 Bft)
06.03.2020 12:20 8,9 C 77 % 998,0 hPa 0,0 mm W 273 12,9 km/h (3 Bft)
06.03.2020 12:25 8,8 C 78 % 998,2 hPa 0,0 mm W 266 8,0 km/h (2 Bft)
06.03.2020 12:30 8,6 C 78 % 998,2 hPa 0,0 mm W 261 11,3 km/h (2 Bft)
06.03.2020 12:35 8,6 C 78 % 998,2 hPa 0,0 mm W-SW 256 11,3 km/h (2 Bft)
06.03.2020 12:40 8,7 C 78 % 998,1 hPa 0,0 mm W 273 11,3 km/h (2 Bft)
06.03.2020 12:45 8,9 C 77 % 998,2 hPa 0,0 mm W-SW 247 11,3 km/h (2 Bft)
06.03.2020 12:50 8,9 C 73 % 998,1 hPa 0,0 mm W 264 17,7 km/h (3 Bft)
06.03.2020 12:55 8,8 C 72 % 998,2 hPa 0,0 mm W 271 20,9 km/h (4 Bft)
06.03.2020 13:00 8,8 C 74 % 998,2 hPa 0,0 mm W 266 14,5 km/h (3 Bft)
06.03.2020 13:05 8,7 C 73 % 998,1 hPa 0,0 mm W 269 22,5 km/h (4 Bft)
06.03.2020 13:10 8,7 C 73 % 998,2 hPa 0,0 mm W 277 16,1 km/h (3 Bft)
06.03.2020 13:15 8,7 C 73 % 998,3 hPa 0,0 mm W 278 14,5 km/h (3 Bft)
06.03.2020 13:20 8,6 C 73 % 998,3 hPa 0,0 mm W 273 16,1 km/h (3 Bft)
06.03.2020 13:25 8,7 C 71 % 998,3 hPa 0,0 mm W 263 19,3 km/h (3 Bft)
06.03.2020 13:30 8,7 C 68 % 998,4 hPa 0,0 mm W 274 20,9 km/h (4 Bft)
06.03.2020 13:35 8,7 C 68 % 998,4 hPa 0,0 mm W 267 20,9 km/h (4 Bft)
06.03.2020 13:40 8,9 C 68 % 998,4 hPa 0,0 mm W 270 17,7 km/h (3 Bft)
06.03.2020 13:45 8,8 C 66 % 998,5 hPa 0,0 mm W 265 27,4 km/h (4 Bft)
06.03.2020 13:50 8,8 C 65 % 998,6 hPa 0,0 mm W 261 20,9 km/h (4 Bft)
06.03.2020 13:55 8,9 C 66 % 998,7 hPa 0,0 mm W-SW 258 20,9 km/h (4 Bft)
06.03.2020 14:00 8,9 C 66 % 998,7 hPa 0,0 mm W 279 19,3 km/h (3 Bft)
06.03.2020 14:05 9,0 C 66 % 998,8 hPa 0,0 mm W 263 20,9 km/h (4 Bft)
06.03.2020 14:10 9,1 C 65 % 998,8 hPa 0,0 mm W 267 16,1 km/h (3 Bft)
06.03.2020 14:15 9,0 C 65 % 998,8 hPa 0,0 mm W-NW 286 19,3 km/h (3 Bft)
06.03.2020 14:20 9,1 C 65 % 998,8 hPa 0,0 mm W 265 19,3 km/h (3 Bft)
06.03.2020 14:25 9,0 C 65 % 998,8 hPa 0,0 mm W-SW 243 17,7 km/h (3 Bft)
06.03.2020 14:30 8,9 C 64 % 999,0 hPa 0,0 mm W 277 22,5 km/h (4 Bft)
06.03.2020 14:35 8,8 C 64 % 999,1 hPa 0,0 mm W 259 29,0 km/h (5 Bft)
06.03.2020 14:40 8,7 C 63 % 999,1 hPa 0,0 mm W 275 27,4 km/h (4 Bft)
06.03.2020 14:45 8,8 C 63 % 999,2 hPa 0,0 mm W 279 24,1 km/h (4 Bft)
06.03.2020 14:50 8,8 C 64 % 999,3 hPa 0,0 mm W 275 22,5 km/h (4 Bft)
06.03.2020 14:55 8,8 C 64 % 999,3 hPa 0,0 mm W 263 22,5 km/h (4 Bft)
06.03.2020 15:00 8,6 C 63 % 999,4 hPa 0,0 mm W 263 25,7 km/h (4 Bft)
06.03.2020 15:05 8,4 C 64 % 999,4 hPa 0,0 mm W 279 24,1 km/h (4 Bft)
06.03.2020 15:10 8,3 C 64 % 999,5 hPa 0,0 mm W-NW 286 20,9 km/h (4 Bft)
06.03.2020 15:15 8,3 C 65 % 999,7 hPa 0,0 mm W 281 17,7 km/h (3 Bft)
06.03.2020 15:20 8,3 C 65 % 999,7 hPa 0,0 mm W 276 16,1 km/h (3 Bft)
06.03.2020 15:25 8,2 C 64 % 999,8 hPa 0,0 mm W 277 24,1 km/h (4 Bft)
06.03.2020 15:30 8,2 C 64 % 999,8 hPa 0,0 mm W-NW 283 20,9 km/h (4 Bft)
06.03.2020 15:35 8,3 C 64 % 999,8 hPa 0,0 mm W 263 20,9 km/h (4 Bft)
06.03.2020 15:40 8,3 C 64 % 999,9 hPa 0,0 mm W 272 17,7 km/h (3 Bft)
06.03.2020 15:45 8,3 C 64 % 999,8 hPa 0,0 mm W-SW 258 24,1 km/h (4 Bft)
06.03.2020 15:50 8,3 C 64 % 999,9 hPa 0,0 mm W 277 17,7 km/h (3 Bft)
06.03.2020 15:55 8,3 C 64 % 1000,0 hPa 0,0 mm W 272 19,3 km/h (3 Bft)
06.03.2020 16:00 8,3 C 64 % 1000,0 hPa 0,0 mm W 279 16,1 km/h (3 Bft)
06.03.2020 16:05 8,2 C 64 % 1000,1 hPa 0,0 mm W 263 24,1 km/h (4 Bft)
06.03.2020 16:10 8,1 C 64 % 1000,1 hPa 0,0 mm W 268 16,1 km/h (3 Bft)
06.03.2020 16:15 8,1 C 65 % 1000,2 hPa 0,0 mm W 263 19,3 km/h (3 Bft)
06.03.2020 16:20 8,0 C 65 % 1000,2 hPa 0,0 mm W 271 17,7 km/h (3 Bft)
06.03.2020 16:25 8,0 C 64 % 1000,3 hPa 0,0 mm W 260 19,3 km/h (3 Bft)
06.03.2020 16:30 7,9 C 65 % 1000,3 hPa 0,0 mm W 265 16,1 km/h (3 Bft)
06.03.2020 16:35 7,9 C 65 % 1000,5 hPa 0,0 mm W 276 17,7 km/h (3 Bft)
06.03.2020 16:40 7,9 C 64 % 1000,5 hPa 0,0 mm W 265 20,9 km/h (4 Bft)
06.03.2020 16:45 7,8 C 65 % 1000,5 hPa 0,0 mm W-NW 286 17,7 km/h (3 Bft)
06.03.2020 16:50 7,8 C 64 % 1000,6 hPa 0,0 mm W-SW 256 19,3 km/h (3 Bft)
06.03.2020 16:55 7,8 C 64 % 1000,7 hPa 0,0 mm W-SW 257 17,7 km/h (3 Bft)
06.03.2020 17:00 7,8 C 64 % 1000,7 hPa 0,0 mm W 270 17,7 km/h (3 Bft)
06.03.2020 17:05 7,7 C 64 % 1000,7 hPa 0,0 mm W 265 17,7 km/h (3 Bft)
06.03.2020 17:10 7,7 C 65 % 1000,9 hPa 0,0 mm W 268 12,9 km/h (3 Bft)
06.03.2020 17:15 7,6 C 65 % 1001,0 hPa 0,0 mm W 269 12,9 km/h (3 Bft)
06.03.2020 17:20 7,6 C 64 % 1001,2 hPa 0,0 mm W-NW 289 30,6 km/h (5 Bft)
06.03.2020 17:25 7,6 C 64 % 1001,3 hPa 0,0 mm W-NW 284 24,1 km/h (4 Bft)
06.03.2020 17:30 7,5 C 64 % 1001,4 hPa 0,0 mm W 262 17,7 km/h (3 Bft)
06.03.2020 17:35 7,5 C 65 % 1001,5 hPa 0,0 mm W 261 20,9 km/h (4 Bft)
06.03.2020 17:40 7,4 C 65 % 1001,8 hPa 0,0 mm W 271 19,3 km/h (3 Bft)
06.03.2020 17:45 7,4 C 65 % 1001,9 hPa 0,0 mm W 279 29,0 km/h (5 Bft)
06.03.2020 17:50 7,3 C 65 % 1002,0 hPa 0,0 mm W 272 27,4 km/h (4 Bft)
06.03.2020 17:55 7,2 C 66 % 1002,0 hPa 0,0 mm W-SW 257 22,5 km/h (4 Bft)
06.03.2020 18:00 7,1 C 66 % 1002,2 hPa 0,0 mm W 261 27,4 km/h (4 Bft)
06.03.2020 18:05 7,0 C 66 % 1002,2 hPa 0,0 mm W 273 29,0 km/h (5 Bft)
06.03.2020 18:10 6,9 C 67 % 1002,2 hPa 0,0 mm W-SW 248 27,4 km/h (4 Bft)
06.03.2020 18:15 6,8 C 66 % 1002,3 hPa 0,0 mm W 269 22,5 km/h (4 Bft)
06.03.2020 18:20 6,8 C 67 % 1002,4 hPa 0,0 mm W 269 22,5 km/h (4 Bft)
06.03.2020 18:25 6,7 C 67 % 1002,4 hPa 0,0 mm W 262 20,9 km/h (4 Bft)
06.03.2020 18:30 6,7 C 67 % 1002,5 hPa 0,0 mm W 267 19,3 km/h (3 Bft)
06.03.2020 18:35 6,6 C 68 % 1002,6 hPa 0,0 mm W 269 17,7 km/h (3 Bft)
06.03.2020 18:40 6,6 C 68 % 1002,7 hPa 0,0 mm W-SW 257 17,7 km/h (3 Bft)
06.03.2020 18:45 6,6 C 68 % 1002,9 hPa 0,0 mm W-NW 292 16,1 km/h (3 Bft)
06.03.2020 18:50 6,6 C 68 % 1002,9 hPa 0,0 mm W 279 29,0 km/h (5 Bft)
06.03.2020 18:55 6,6 C 68 % 1003,1 hPa 0,0 mm W 276 24,1 km/h (4 Bft)
06.03.2020 19:00 6,6 C 68 % 1003,2 hPa 0,0 mm W 271 24,1 km/h (4 Bft)
06.03.2020 19:05 6,6 C 68 % 1003,3 hPa 0,0 mm W 274 24,1 km/h (4 Bft)
06.03.2020 19:10 6,6 C 67 % 1003,4 hPa 0,0 mm W 279 24,1 km/h (4 Bft)
06.03.2020 19:15 6,6 C 68 % 1003,5 hPa 0,0 mm W-SW 251 22,5 km/h (4 Bft)
06.03.2020 19:20 6,5 C 68 % 1003,6 hPa 0,0 mm W-NW 294 22,5 km/h (4 Bft)
06.03.2020 19:25 6,5 C 68 % 1003,7 hPa 0,0 mm W-SW 254 22,5 km/h (4 Bft)
06.03.2020 19:30 6,5 C 68 % 1003,9 hPa 0,0 mm W 265 29,0 km/h (5 Bft)
06.03.2020 19:35 6,4 C 69 % 1004,0 hPa 0,0 mm W 270 35,4 km/h (5 Bft)
06.03.2020 19:40 6,4 C 70 % 1004,0 hPa 0,0 mm W-SW 257 24,1 km/h (4 Bft)
06.03.2020 19:45 6,3 C 71 % 1004,2 hPa 0,0 mm W 270 20,9 km/h (4 Bft)
06.03.2020 19:50 6,2 C 72 % 1004,3 hPa 0,0 mm W 269 24,1 km/h (4 Bft)
06.03.2020 19:55 6,1 C 72 % 1004,3 hPa 0,0 mm W 267 30,6 km/h (5 Bft)
06.03.2020 20:00 6,0 C 73 % 1004,4 hPa 0,0 mm W 273 20,9 km/h (4 Bft)
06.03.2020 20:05 5,9 C 74 % 1004,5 hPa 0,0 mm W 265 24,1 km/h (4 Bft)
06.03.2020 20:10 5,8 C 74 % 1004,6 hPa 0,0 mm W 274 19,3 km/h (3 Bft)
06.03.2020 20:15 5,8 C 75 % 1004,6 hPa 0,0 mm W 267 22,5 km/h (4 Bft)
06.03.2020 20:20 5,7 C 75 % 1004,8 hPa 0,0 mm W 273 29,0 km/h (5 Bft)
06.03.2020 20:25 5,6 C 76 % 1004,8 hPa 0,0 mm W-NW 292 27,4 km/h (4 Bft)
06.03.2020 20:30 5,6 C 77 % 1005,0 hPa 0,0 mm W-SW 254 25,7 km/h (4 Bft)
06.03.2020 20:35 5,5 C 78 % 1005,0 hPa 0,2 mm W-NW 285 25,7 km/h (4 Bft)
06.03.2020 20:40 5,4 C 79 % 1005,1 hPa 0,0 mm W-NW 286 24,1 km/h (4 Bft)
06.03.2020 20:45 5,3 C 80 % 1005,2 hPa 0,0 mm W 259 17,7 km/h (3 Bft)
06.03.2020 20:50 5,2 C 80 % 1005,4 hPa 0,0 mm W 277 12,9 km/h (3 Bft)
06.03.2020 20:55 5,1 C 81 % 1005,4 hPa 0,0 mm W-SW 254 19,3 km/h (3 Bft)
06.03.2020 21:00 5,1 C 81 % 1005,5 hPa 0,0 mm W 271 24,1 km/h (4 Bft)
06.03.2020 21:05 5,0 C 82 % 1005,6 hPa 0,0 mm W 275 35,4 km/h (5 Bft)
06.03.2020 21:10 4,9 C 82 % 1005,7 hPa 0,0 mm W-NW 291 25,7 km/h (4 Bft)
06.03.2020 21:15 4,9 C 82 % 1005,8 hPa 0,0 mm W 273 27,4 km/h (4 Bft)
06.03.2020 21:20 4,8 C 82 % 1005,9 hPa 0,0 mm W 277 25,7 km/h (4 Bft)
06.03.2020 21:25 4,8 C 83 % 1006,0 hPa 0,2 mm W-SW 256 22,5 km/h (4 Bft)
06.03.2020 21:30 4,7 C 83 % 1006,0 hPa 0,0 mm W 277 20,9 km/h (4 Bft)
06.03.2020 21:35 4,6 C 84 % 1006,1 hPa 0,0 mm W 269 25,7 km/h (4 Bft)
06.03.2020 21:40 4,6 C 84 % 1006,2 hPa 0,2 mm W 271 20,9 km/h (4 Bft)
06.03.2020 21:45 4,5 C 84 % 1006,3 hPa 0,0 mm W 276 37,0 km/h (5 Bft)
06.03.2020 21:50 4,5 C 85 % 1006,3 hPa 0,0 mm W 261 24,1 km/h (4 Bft)
06.03.2020 21:55 4,4 C 85 % 1006,4 hPa 0,0 mm W 261 22,5 km/h (4 Bft)
06.03.2020 22:00 4,4 C 85 % 1006,5 hPa 0,0 mm W 272 25,7 km/h (4 Bft)
06.03.2020 22:05 4,3 C 86 % 1006,5 hPa 0,2 mm W 271 27,4 km/h (4 Bft)
06.03.2020 22:10 4,3 C 86 % 1006,6 hPa 0,0 mm W 280 17,7 km/h (3 Bft)
06.03.2020 22:15 4,3 C 86 % 1006,6 hPa 0,0 mm W 269 30,6 km/h (5 Bft)
06.03.2020 22:20 4,2 C 86 % 1006,8 hPa 0,0 mm W-SW 257 35,4 km/h (5 Bft)
06.03.2020 22:25 4,2 C 86 % 1006,9 hPa 0,0 mm W-SW 246 25,7 km/h (4 Bft)
06.03.2020 22:30 4,2 C 86 % 1006,9 hPa 0,0 mm W 279 32,2 km/h (5 Bft)
06.03.2020 22:35 4,1 C 87 % 1007,0 hPa 0,0 mm W-SW 257 29,0 km/h (5 Bft)
06.03.2020 22:40 4,1 C 86 % 1007,0 hPa 0,0 mm W-SW 258 27,4 km/h (4 Bft)
06.03.2020 22:45 4,1 C 87 % 1007,1 hPa 0,0 mm W 271 24,1 km/h (4 Bft)
06.03.2020 22:50 4,1 C 87 % 1007,2 hPa 0,0 mm W 278 22,5 km/h (4 Bft)
06.03.2020 22:55 4,1 C 87 % 1007,2 hPa 0,0 mm W 269 20,9 km/h (4 Bft)
06.03.2020 23:00 4,1 C 87 % 1007,3 hPa 0,0 mm W 265 29,0 km/h (5 Bft)
06.03.2020 23:05 4,1 C 87 % 1007,3 hPa 0,2 mm W 273 32,2 km/h (5 Bft)
06.03.2020 23:10 4,0 C 87 % 1007,4 hPa 0,0 mm W-NW 285 24,1 km/h (4 Bft)
06.03.2020 23:15 4,0 C 87 % 1007,5 hPa 0,0 mm W 269 27,4 km/h (4 Bft)
06.03.2020 23:20 3,9 C 87 % 1007,6 hPa 0,0 mm W 281 22,5 km/h (4 Bft)
06.03.2020 23:25 3,9 C 87 % 1007,7 hPa 0,0 mm W 260 22,5 km/h (4 Bft)
06.03.2020 23:30 3,9 C 88 % 1007,8 hPa 0,0 mm W 260 20,9 km/h (4 Bft)
06.03.2020 23:35 3,8 C 88 % 1007,9 hPa 0,0 mm W-NW 288 30,6 km/h (5 Bft)
06.03.2020 23:40 3,8 C 88 % 1008,0 hPa 0,0 mm W 273 22,5 km/h (4 Bft)
06.03.2020 23:45 3,8 C 88 % 1008,1 hPa 0,0 mm W 259 29,0 km/h (5 Bft)
06.03.2020 23:50 3,8 C 88 % 1008,1 hPa 0,0 mm W 276 32,2 km/h (5 Bft)
06.03.2020 23:55 3,7 C 88 % 1008,2 hPa 0,0 mm W 271 27,4 km/h (4 Bft)
_ Min-Zeit 23:55 14:40 04:10 - - - 00:30
Minimum _ 3,7 C 63 % 994,4 hPa - - - 0,0 km/h (0 Bft)
_ Max-Zeit 11:55 09:05 23:55 05:45 - - 21:45
Maximum _ 9,3 C 94 % 1008,2 hPa 0,6 mm - - 37,0 km/h
W (5 Bft)
Durchschnitt _ 6,1 C 82 % 999,2 hPa #5,8 mm W - 13,6 km/h (3 Bft)